N6YV Weather Reports


Display with metric or nautical units.
time (UTC)temp
F
wind
direction
speed
MPH
gust
MPH
rain 1hr
in
rain 24hr
in
rain mn
in
humidity
%
barometer
mb
20240523100016 47 5 3.0 0.0 0.00 0.00 0.00 27 1006.1
20240523094514 47 5 2.0 0.0 0.00 0.00 0.00 27 1006.2
20240523093013 46 19 2.0 0.0 0.00 0.00 0.00 29 1006.2
20240523091513 46 19 1.0 0.0 0.00 0.00 0.00 28 1006.2
20240523090015 46 19 2.0 0.0 0.00 0.00 0.00 29 1006.3
20240523084515 46 19 2.0 0.0 0.00 0.00 0.00 30 1006.1
20240523083018 45 19 1.0 0.0 0.00 0.00 0.00 28 1006.0
20240523081507 46 355 2.0 0.0 0.00 0.00 0.00 32 1005.9
20240523080002 48 355 1.0 0.0 0.00 0.00 0.00 29 1005.8
20240523074605 49 355 1.0 0.0 0.00 0.00 0.00 28 1005.6
20240523073055 50 355 5.0 0.0 0.00 0.00 0.00 27 1005.6
20240523071559 51 32 7.0 0.0 0.00 0.00 0.00 26 1005.2
20240523070112 53 17 5.0 0.0 0.00 0.00 0.00 38 1004.9
20240523064547 55 297 5.0 0.0 0.00 0.00 0.00 34 1004.4
20240523063050 56 273 5.0 0.0 0.00 0.00 0.00 33 1004.4
20240523061549 57 242 9.0 0.0 0.00 0.00 0.00 31 1004.3
20240523060045 57 267 8.0 0.0 0.00 0.00 0.00 32 1004.3
20240523054553 57 260 7.0 0.0 0.00 0.00 0.00 33 1004.1
20240523053044 57 288 6.0 0.0 0.00 0.00 0.00 35 1004.3
20240523051544 57 337 6.0 0.0 0.00 0.00 0.00 35 1004.2
20240523050044 57 277 9.0 0.0 0.00 0.00 0.00 35 1003.8
20240523044545 58 277 10.0 0.0 0.00 0.00 0.00 35 1003.8
20240523043043 58 300 9.0 0.0 0.00 0.00 0.00 36 1003.6
20240523041559 59 269 11.0 0.0 0.00 0.00 0.00 36 1003.4
20240523040045 59 266 9.0 0.0 0.00 0.00 0.00 35 1003.4
20240523034542 59 298 7.0 0.0 0.00 0.00 0.00 36 1003.0
20240523033041 60 271 7.0 0.0 0.00 0.00 0.00 35 1003.1
20240523031543 61 273 14.0 0.0 0.00 0.00 0.00 34 1002.9
20240523030056 61 252 12.0 0.0 0.00 0.00 0.00 34 1002.5
20240523024538 62 277 10.0 0.0 0.00 0.00 0.00 33 1002.7
20240523023038 64 290 7.0 0.0 0.00 0.00 0.00 31 1002.4
20240523021538 65 346 7.0 0.0 0.00 0.00 0.00 30 1002.3
20240523020038 66 267 6.0 0.0 0.00 0.00 0.00 28 1001.8
20240523014537 67 229 7.0 0.0 0.00 0.00 0.00 27 1001.6
20240523013042 67 224 4.0 0.0 0.00 0.00 0.00 26 1001.5
20240523011537 67 275 13.0 0.0 0.00 0.00 0.00 26 1001.6
20240523010037 68 304 10.0 0.0 0.00 0.00 0.00 23 1001.5
20240523004535 69 217 7.0 0.0 0.00 0.00 0.00 24 1001.4
20240523003036 70 259 9.0 0.0 0.00 0.00 0.00 23 1001.4
20240523001541 70 288 7.0 0.0 0.00 0.00 0.00 23 1001.3
20240523000045 70 235 11.0 0.0 0.00 0.00 0.00 23 1001.4
20240522234534 70 323 10.0 0.0 0.00 0.00 0.00 22 1001.4
20240522233037 71 277 14.0 0.0 0.00 0.00 0.00 20 1001.6
20240522231538 71 284 11.0 0.0 0.00 0.00 0.00 21 1001.6
20240522230043 72 275 13.0 0.0 0.00 0.00 0.00 20 1001.5
20240522224537 72 211 10.0 0.0 0.00 0.00 0.00 22 1001.4
20240522223040 72 259 12.0 0.0 0.00 0.00 0.00 22 1001.7
20240522221537 72 288 11.0 0.0 0.00 0.00 0.00 20 1001.7
20240522220028 72 217 8.0 0.0 0.00 0.00 0.00 20 1002.0
20240522214537 72 300 7.0 0.0 0.00 0.00 0.00 19 1002.2
20240522213025 72 70 6.0 0.0 0.00 0.00 0.00 17 1002.3
20240522211526 71 336 10.0 0.0 0.00 0.00 0.00 20 1002.4
20240522210036 72 360 10.0 0.0 0.00 0.00 0.00 17 1002.8
20240522204521 72 290 5.0 0.0 0.00 0.00 0.00 18 1002.9
20240522203030 71 242 8.0 0.0 0.00 0.00 0.00 18 1002.9
20240522201519 71 313 6.0 0.0 0.00 0.00 0.00 18 1003.1
20240522200025 71 275 8.0 0.0 0.00 0.00 0.00 18 1003.0
20240522194518 71 203 7.0 0.0 0.00 0.00 0.00 19 1003.2
20240522193011 70 296 9.0 0.0 0.00 0.00 0.00 17 1003.6
20240522191508 70 290 12.0 0.0 0.00 0.00 0.00 19 1003.8
20240522190008 69 290 10.0 0.0 0.00 0.00 0.00 18 1003.7
20240522184504 69 344 12.0 0.0 0.00 0.00 0.00 20 1003.7
20240522183001 68 62 3.0 0.0 0.00 0.00 0.00 23 1003.7
20240522181600 68 107 3.0 0.0 0.00 0.00 0.00 24 1004.0
20240522180057 66 47 4.0 0.0 0.00 0.00 0.00 25 1004.0
20240522174554 66 56 2.0 0.0 0.00 0.00 0.00 26 1004.1
20240522173053 66 44 3.0 0.0 0.00 0.00 0.00 25 1004.2
20240522171550 65 56 2.0 0.0 0.00 0.00 0.00 27 1004.4
20240522170050 64 75 1.0 0.0 0.00 0.00 0.00 28 1004.6
20240522164544 63 56 2.0 0.0 0.00 0.00 0.00 30 1004.8
20240522163041 62 76 3.0 0.0 0.00 0.00 0.00 31 1005.1
20240522161544 61 67 2.0 0.0 0.00 0.00 0.00 31 1005.4
20240522160034 60 65 3.0 0.0 0.00 0.00 0.00 34 1005.5
20240522154531 59 68 3.0 0.0 0.00 0.00 0.00 34 1005.8
20240522153034 58 50 3.0 0.0 0.00 0.00 0.00 35 1005.8
20240522151525 57 360 4.0 0.0 0.00 0.00 0.00 38 1005.9
20240522150025 57 9 2.0 0.0 0.00 0.00 0.00 40 1005.8
20240522144520 56 5 2.0 0.0 0.00 0.00 0.00 39 1006.0
20240522143017 54 5 3.0 0.0 0.00 0.00 0.00 43 1006.1
20240522141515 53 355 3.0 0.0 0.00 0.00 0.00 45 1005.9
20240522140030 53 350 3.0 0.0 0.00 0.00 0.00 46 1005.9
20240522134525 50 224 3.0 0.0 0.00 0.00 0.00 49 1005.5
20240522133016 47 258 1.0 0.0 0.00 0.00 0.00 52 1005.7
20240522131512 45 257 0.0 0.0 0.00 0.00 0.00 54 1005.8
20240522130013 45 257 3.0 0.0 0.00 0.00 0.00 56 1005.8
20240522124508 44 259 3.0 0.0 0.00 0.00 0.00 57 1005.9
20240522123007 44 261 2.0 0.0 0.00 0.00 0.00 55 1006.1
20240522121502 46 258 1.0 0.0 0.00 0.00 0.00 54 1006.2
20240522120101 46 253 1.0 0.0 0.00 0.00 0.00 54 1006.3
20240522114607 47 253 4.0 0.0 0.00 0.00 0.00 54 1006.4
20240522113100 47 259 4.0 0.0 0.00 0.00 0.00 55 1006.5
20240522111618 47 256 4.0 0.0 0.00 0.00 0.00 53 1006.5
20240522110054 47 254 3.0 0.0 0.00 0.00 0.00 53 1006.6
20240522104551 48 264 3.0 0.0 0.00 0.00 0.00 53 1006.6
20240522103052 49 265 3.0 0.0 0.00 0.00 0.00 50 1006.7
20240522101546 49 264 4.0 0.0 0.00 0.00 0.00 50 1007.1